Orbital Elements
Epoch 2016 Feb. 22.0 TT = JDT 2457440.5
T 2016 Mar. 9.49534 TT MPCW
q 0.5771560 (2000.0) P Q
n 0.23921288 Peri. 217.73474 +0.82693649 -0.56215712
a 2.5700782 Node 176.40187 +0.55205266 +0.80746106
e 0.7754325 Incl. 11.45791 +0.10683590 +0.17884632
P 4.12
From 333 observations 2012 Jan. 13-2016 Feb. 22, mean residual 4".8.
|